Meteo Giornale » Osservazioni meteo Albania » Tirana

ore: 12:20 - Osservazioni Meteo Tirana
Lat. 41° 20' N Lon. 19° 47' E Alt. 89 metri s.l.m.

coperto_pioggia Europe/Tirane

18 °C

Pioggia Debole

Temp. 24 Ore

13 °C

21 °C

Ovest

11.1 Km/h

Dew point 14 °C

Umidità 77 %

Visibilità  10 Km

Il sole sorge alle ore 07:03

Il sole tramonta alle ore 17:46

Data e Ora Cielo e Fenomeni T °C DP °C Um. % Pres. hPa Vis. km Vento km/h
Oggi h: 12:20 coperto_pioggia Pioggia Debole 18 14 77 1015 10 O 11.1
Oggi h: 11:50 molto_nuvoloso Molto Nuvoloso 19 13 68 1015 10 S 11.1
Oggi h: 11:20 nuvoloso Nuvoloso 19 14 72 1015 10 SE 14.8
Oggi h: 10:50 nuvoloso Nuvoloso 19 14 72 1015 10 SE 13
Oggi h: 10:20 poco_nuvoloso Poco Nuvoloso 19 14 72 1015 10 S/SE 16.7
Oggi h: 09:50 nuvoloso Nuvoloso 18 14 77 1015 10 SE 9.3
Oggi h: 09:20 molto_nuvoloso Molto Nuvoloso 17 14 82 1015 10 S/SE 11.1
Oggi h: 08:50 molto_nuvoloso Molto Nuvoloso 16 14 87 1015 10 S/SE 9.3
Oggi h: 08:20 coperto Coperto 15 14 93 1015 10 S/SE 7.4
Oggi h: 07:50 coperto Coperto 15 13 87 1015 10 S 7.4
Oggi h: 07:20 coperto Coperto 14 13 93 1015 10 N 3.7
Oggi h: 05:50 coperto_pioggia Pioggia Debole 14 13 93 1015 10 N 5.5
Oggi h: 05:20 coperto_pioggia Pioggia Debole 14 13 93 1015 10 S/SE 9.3
Oggi h: 04:50 coperto_pioggia Pioggia Debole 14 12 87 1015 10 SE 7.4
Oggi h: 04:20 coperto_pioggia Pioggia Debole 13 12 93 1015 10 S 13
Oggi h: 03:50 coperto_pioggia Pioggia Debole 14 13 93 1015 10 S 11.1
Oggi h: 03:20 coperto_pioggia Pioggia 14 13 93 1015 5 SE 13
Oggi h: 02:50 coperto_pioggia Pioggia 14 13 93 1015 5 S 11.1
Oggi h: 02:20 coperto_pioggia Pioggia 14 13 93 1016 2 S 7.4
Oggi h: 01:50 coperto_pioggia Pioggia 14 13 93 1016 3 N 3.7
Oggi h: 01:20 coperto_pioggia Pioggia 14 13 93 1016 5 N 5.5
Oggi h: 00:50 coperto_pioggia Pioggia 14 13 93 1017 5 N 14.8
Oggi h: 00:20 coperto Coperto 14 12 87 1016 10 N 3.7
Ieri h: 23:50 coperto Coperto 14 12 87 1016 8 S/SO 9.3
Ieri h: 23:20 coperto Coperto 13 12 93 1016 6 E 7.4
Ieri h: 22:50 molto_nuvoloso Molto Nuvoloso 13 12 93 1017 8 N 1.8
Ieri h: 22:20 molto_nuvoloso Molto Nuvoloso 13 11 87 1017 7 N 5.5
Ieri h: 21:50 foschia Foschia 13 11 87 1017 5 N 1.8
Ieri h: 21:20 sereno Sereno 13 11 87 1017 6 N 5.5
Ieri h: 20:50 poco_nuvoloso Poco Nuvoloso 13 12 93 1017 7 N 3.7
Ieri h: 20:20 sereno Sereno 14 12 87 1017 7 N 0
Ieri h: 19:50 sereno Sereno 14 13 93 1017 10 N 5.5
Ieri h: 19:20 sereno Sereno 15 13 87 1017 10 N 3.7
Ieri h: 18:50 sereno Sereno 15 13 87 1017 10 N 0
Ieri h: 17:50 sereno Sereno 17 13 77 1017 10 N 1.8
Ieri h: 16:50 sereno Sereno 20 13 64 1017 10 N 1.8
Ieri h: 16:20 molto_nuvoloso Molto Nuvoloso 20 11 56 1017 10 N 1.8
Ieri h: 15:50 molto_nuvoloso Molto Nuvoloso 21 11 52 1017 10 N 3.7
Ieri h: 15:20 molto_nuvoloso Molto Nuvoloso 21 11 52 1017 10 N 3.7
Ieri h: 14:50 molto_nuvoloso Molto Nuvoloso 21 11 52 1017 10 N 3.7
Ieri h: 14:20 molto_nuvoloso Molto Nuvoloso 21 10 49 1017 10 N 3.7
Ieri h: 13:50 molto_nuvoloso Molto Nuvoloso 20 10 52 1017 10 N 3.7
Ieri h: 13:20 molto_nuvoloso Molto Nuvoloso 20 9 49 1018 10 N 0
Ieri h: 12:50 molto_nuvoloso Molto Nuvoloso 20 10 52 1018 10 N 3.7